Tracking 31027 objects as of 19-Jul-2025
HD Live streaming from Space Station
objects crossing your sky now

SL-12 R/B(2)

Track SL-12 R/B(2) now!


NORAD ID: 20502
Int'l Code: 1990-016D
Perigee: 35,684.2 km
Apogee: 36,032.9 km
Inclination: 12.8 °
Period: 1,439.4 minutes
Semi major axis: 42229 km
RCS: 3.9952 m2 (large)
Launch date: February 15, 1990
Source: Commonwealth of Independent States (former USSR) (CIS)
Launch site: TYURATAM MISSILE AND SPACE COMPLEX (TTMTR)

Note: This is a ROCKET BODY
Your satellite tracking list
SPACEBEENZ-7
Track 1 satellite(s)




NASA's NSSDC Master Catalog

Two Line Element Set (TLE):
1 20502U 90016D   25199.54810166 -.00000089  00000-0  00000-0 0  9990
2 20502  12.8041 337.4949 0041285 234.5242  92.0795  1.00041032129429
Source of the keplerian elements: AFSPC